Location: Austin
(30.3000°N, 97.7500°W)
Time: 07:34:32
(UTC-05:00)

BREEZE-M DEB (TANK) - Pass Details

Date: 16 June 2025
Orbit: 306 x 13776 km, 49.5° (Epoch: 06 July)

Event Time Altitude Azimuth Distance (km) Brightness Sun altitude
Rises 23:55:48 0° 222° (SW) 12,076 9.2 -31.6°
Reaches altitude 10° 00:08:16 10° 223° (SW) 8,524 8.4 -32.7°
Maximum altitude 00:28:40 88° 138° (SE) 1,409 4.4 -34.2°
Drops below altitude 10° 00:33:30 10° 48° (NE) 2,274 6.0 -34.6°
Sets 00:34:54 0° 48° (NE) 2,866 6.6 -34.6°
